Tracking 18852 objects as of 23-Nov-2017
HD Live streaming from Space Station
objects crossing your sky now

FENGYUN 1C DEB

Track FENGYUN 1C DEB now!
10-day predictions


NORAD ID: 32172
Int'l Code: 1999-025CTS
Perigee: 565.9 km
Apogee: 780.6 km
Inclination: 99.1 °
Period: 98.1 minutes
Semi major axis: 7044 km
RCS: 0.0072 m2 (small)
Launch date: May 10, 1999
Source: People's Republic of China (PRC)
Launch site: Taiyaun Space Center, China (TSC)

Note: This is SATELLITE DEBRIS
aabbcc
Your satellite tracking list
Your tracking list is empty




NASA's NSSDC Master Catalog

Two Line Element Set (TLE):
1 32172U 99025CTS 17327.09249747  .00001083  00000-0  16709-3 0  9990
2 32172  99.0774  12.5482 0152358 169.2675 191.1840 14.68426586554485
Source of the keplerian elements: AFSPC